Time,TemperatureF,DewpointF,PressureIn,WindDirection,WindDirectionDegrees,WindSpeedMPH,WindSpeedGustMPH,Humidity,HourlyPrecipIn,Conditions,Clouds,dailyrainin,SoftwareType,DateUTC
2013-03-17 00:03:00,22.8,5.5,30.10,North,-999,-999.0,-999.0,47,0.00,,,0.02,meteohub,2013-03-17 05:03:00,
2013-03-17 00:08:00,22.8,5.5,30.10,North,-999,-999.0,-999.0,47,0.00,,,0.00,meteohub,2013-03-17 05:08:00,
2013-03-17 00:13:00,22.8,5.5,30.11,North,-999,-999.0,-999.0,47,0.00,,,0.00,meteohub,2013-03-17 05:13:00,
2013-03-17 00:18:00,22.8,5.5,30.11,North,-999,-999.0,-999.0,47,0.00,,,0.00,meteohub,2013-03-17 05:18:00,
2013-03-17 00:30:00,22.5,5.7,30.11,North,-999,-999.0,-999.0,48,0.00,,,0.00,meteohub,2013-03-17 05:30:00,
2013-03-17 00:35:00,22.5,5.7,30.11,North,-999,-999.0,-999.0,48,0.00,,,0.00,meteohub,2013-03-17 05:35:00,
2013-03-17 00:41:00,22.3,5.5,30.11,North,-999,-999.0,-999.0,48,0.00,,,0.00,meteohub,2013-03-17 05:41:00,
2013-03-17 00:46:00,22.3,5.5,30.11,North,-999,-999.0,-999.0,48,0.00,,,0.00,meteohub,2013-03-17 05:46:00,
2013-03-17 00:52:00,22.3,5.5,30.11,North,-999,-999.0,-999.0,48,0.00,,,0.00,meteohub,2013-03-17 05:52:00,
2013-03-17 00:57:00,21.9,5.7,30.11,North,-999,-999.0,-999.0,49,0.00,,,0.00,meteohub,2013-03-17 05:57:00,
2013-03-17 01:02:00,21.9,5.7,30.12,North,-999,-999.0,-999.0,49,0.00,,,0.00,meteohub,2013-03-17 06:02:00,
2013-03-17 01:07:00,21.9,5.7,30.12,North,-999,-999.0,-999.0,49,0.00,,,0.00,meteohub,2013-03-17 06:07:00,
2013-03-17 01:12:00,21.9,5.7,30.12,North,-999,-999.0,-999.0,49,0.00,,,0.00,meteohub,2013-03-17 06:12:00,
2013-03-17 01:31:00,21.6,3.9,30.12,North,-999,-999.0,-999.0,46,0.00,,,0.00,meteohub,2013-03-17 06:31:00,
2013-03-17 01:36:00,21.6,3.9,30.12,North,-999,-999.0,-999.0,46,0.00,,,0.00,meteohub,2013-03-17 06:36:00,
2013-03-17 01:41:00,21.6,3.9,30.12,North,-999,-999.0,-999.0,46,0.00,,,0.00,meteohub,2013-03-17 06:41:00,
2013-03-17 02:05:00,21.0,1.6,30.12,North,-999,-999.0,-999.0,42,0.00,,,0.00,meteohub,2013-03-17 07:05:00,
2013-03-17 02:10:00,21.0,1.6,30.12,North,-999,-999.0,-999.0,42,0.00,,,0.00,meteohub,2013-03-17 07:10:00,
2013-03-17 02:16:00,21.0,1.6,30.12,North,-999,-999.0,-999.0,42,0.00,,,0.00,meteohub,2013-03-17 07:16:00,
2013-03-17 02:41:00,20.3,-0.2,30.13,North,-999,-999.0,-999.0,40,0.00,,,0.00,meteohub,2013-03-17 07:41:00,
2013-03-17 02:47:00,20.3,-0.2,30.13,North,-999,-999.0,-999.0,40,0.00,,,0.00,meteohub,2013-03-17 07:47:00,
2013-03-17 02:52:00,20.3,-0.2,30.13,North,-999,-999.0,-999.0,40,0.00,,,0.00,meteohub,2013-03-17 07:52:00,
2013-03-17 03:07:00,19.8,-1.1,30.12,North,-999,-999.0,-999.0,39,0.00,,,0.00,meteohub,2013-03-17 08:07:00,
2013-03-17 03:12:00,19.8,-1.1,30.12,North,-999,-999.0,-999.0,39,0.00,,,0.00,meteohub,2013-03-17 08:12:00,
2013-03-17 03:17:00,19.6,-1.3,30.12,North,-999,-999.0,-999.0,39,0.00,,,0.00,meteohub,2013-03-17 08:17:00,
2013-03-17 03:23:00,19.6,-1.3,30.12,North,-999,-999.0,-999.0,39,0.00,,,0.00,meteohub,2013-03-17 08:23:00,
2013-03-17 03:28:00,19.6,-1.3,30.13,North,-999,-999.0,-999.0,39,0.00,,,0.00,meteohub,2013-03-17 08:28:00,
2013-03-17 03:33:00,19.2,-1.7,30.12,North,-999,-999.0,-999.0,39,0.00,,,0.00,meteohub,2013-03-17 08:33:00,
2013-03-17 03:38:00,19.2,-1.7,30.13,North,-999,-999.0,-999.0,39,0.00,,,0.00,meteohub,2013-03-17 08:38:00,
2013-03-17 03:43:00,19.0,-2.4,30.12,North,-999,-999.0,-999.0,38,0.00,,,0.00,meteohub,2013-03-17 08:43:00,
2013-03-17 03:49:00,19.0,-2.4,30.13,North,-999,-999.0,-999.0,38,0.00,,,0.00,meteohub,2013-03-17 08:49:00,
2013-03-17 03:54:00,19.0,-2.4,30.12,North,-999,-999.0,-999.0,38,0.00,,,0.00,meteohub,2013-03-17 08:54:00,
2013-03-17 04:25:00,18.0,0.1,30.11,North,-999,-999.0,-999.0,45,0.00,,,0.00,meteohub,2013-03-17 09:25:00,
2013-03-17 04:30:00,18.0,0.1,30.11,North,-999,-999.0,-999.0,45,97.51,,,97.51,meteohub,2013-03-17 09:30:00,
2013-03-17 04:35:00,17.8,0.0,30.11,North,-999,-999.0,-999.0,45,97.51,,,97.51,meteohub,2013-03-17 09:35:00,
2013-03-17 04:41:00,11.8,-5.4,30.11,North,-999,-999.0,-999.0,45,97.51,,,97.51,meteohub,2013-03-17 09:41:00,
2013-03-17 04:46:00,11.8,-5.4,30.11,North,-999,-999.0,-999.0,45,97.57,,,97.57,meteohub,2013-03-17 09:46:00,
2013-03-17 04:51:00,11.8,-5.4,30.11,North,-999,-999.0,-999.0,45,0.06,,,97.57,meteohub,2013-03-17 09:51:00,
2013-03-17 04:56:00,17.2,0.5,30.12,North,-999,-999.0,-999.0,47,0.06,,,97.57,meteohub,2013-03-17 09:56:00,
2013-03-17 05:02:00,17.1,-0.2,30.11,North,-999,-999.0,-999.0,46,0.06,,,97.57,meteohub,2013-03-17 10:02:00,
2013-03-17 05:07:00,17.1,-0.2,30.11,North,-999,-999.0,-999.0,46,0.06,,,97.57,meteohub,2013-03-17 10:07:00,
2013-03-17 05:12:00,16.9,-0.4,30.11,North,-999,-999.0,-999.0,46,0.06,,,97.57,meteohub,2013-03-17 10:12:00,
2013-03-17 05:17:00,16.9,-0.8,30.12,North,-999,-999.0,-999.0,45,0.06,,,97.57,meteohub,2013-03-17 10:17:00,
2013-03-17 05:22:00,16.7,-0.9,30.12,North,-999,-999.0,-999.0,45,0.06,,,97.57,meteohub,2013-03-17 10:22:00,
2013-03-17 05:28:00,16.7,-0.9,30.12,North,-999,-999.0,-999.0,45,0.06,,,97.57,meteohub,2013-03-17 10:28:00,
2013-03-17 05:33:00,16.5,-0.6,30.11,North,-999,-999.0,-999.0,46,0.06,,,97.57,meteohub,2013-03-17 10:33:00,
2013-03-17 05:38:00,16.3,-0.8,30.12,North,-999,-999.0,-999.0,46,0.06,,,97.57,meteohub,2013-03-17 10:38:00,
2013-03-17 05:43:00,16.2,-0.9,30.12,North,-999,-999.0,-999.0,46,0.00,,,97.57,meteohub,2013-03-17 10:43:00,
2013-03-17 05:49:00,16.2,-0.9,30.13,North,-999,-999.0,-999.0,46,0.00,,,97.57,meteohub,2013-03-17 10:49:00,
2013-03-17 05:54:00,16.0,-1.1,30.13,North,-999,-999.0,-999.0,46,0.00,,,97.57,meteohub,2013-03-17 10:54:00,
2013-03-17 06:00:00,15.8,-0.9,30.13,North,-999,-999.0,-999.0,47,0.00,,,97.57,meteohub,2013-03-17 11:00:00,
2013-03-17 06:05:00,15.6,-0.9,30.13,North,-999,-999.0,-999.0,47,0.00,,,97.57,meteohub,2013-03-17 11:05:00,
2013-03-17 06:10:00,15.6,-0.9,30.14,North,-999,-999.0,-999.0,47,0.00,,,97.57,meteohub,2013-03-17 11:10:00,
2013-03-17 06:15:00,15.6,-0.9,30.14,North,-999,-999.0,-999.0,47,0.00,,,97.57,meteohub,2013-03-17 11:15:00,
2013-03-17 06:20:00,15.4,-1.1,30.14,North,-999,-999.0,-999.0,47,0.00,,,97.57,meteohub,2013-03-17 11:20:00,
2013-03-17 06:26:00,15.4,-1.1,30.14,North,-999,-999.0,-999.0,47,0.00,,,97.57,meteohub,2013-03-17 11:26:00,
2013-03-17 06:32:00,15.4,-1.1,30.14,North,-999,-999.0,-999.0,47,0.00,,,97.57,meteohub,2013-03-17 11:32:00,
2013-03-17 06:37:00,15.3,-1.3,30.14,North,-999,-999.0,-999.0,47,0.00,,,97.57,meteohub,2013-03-17 11:37:00,
2013-03-17 06:42:00,15.3,-1.3,30.15,North,-999,-999.0,-999.0,47,0.00,,,97.57,meteohub,2013-03-17 11:42:00,
2013-03-17 06:47:00,15.3,-1.3,30.15,North,-999,-999.0,-999.0,47,0.00,,,97.57,meteohub,2013-03-17 11:47:00,
2013-03-17 06:54:00,15.1,-1.5,30.15,North,-999,-999.0,-999.0,47,0.00,,,97.57,meteohub,2013-03-17 11:54:00,
2013-03-17 06:59:00,14.9,-1.7,30.15,North,-999,-999.0,-999.0,47,0.00,,,97.57,meteohub,2013-03-17 11:59:00,
2013-03-17 07:04:00,14.9,-1.7,30.16,North,-999,-999.0,-999.0,47,0.00,,,97.57,meteohub,2013-03-17 12:04:00,
2013-03-17 07:10:00,14.7,-1.8,30.16,North,-999,-999.0,-999.0,47,0.00,,,97.57,meteohub,2013-03-17 12:10:00,
2013-03-17 07:15:00,14.7,-1.8,30.16,North,-999,-999.0,-999.0,47,0.00,,,97.57,meteohub,2013-03-17 12:15:00,
2013-03-17 07:20:00,14.7,-1.5,30.16,North,-999,-999.0,-999.0,48,0.05,,,97.62,meteohub,2013-03-17 12:20:00,
2013-03-17 07:25:00,14.7,-0.9,30.16,North,-999,-999.0,-999.0,49,0.05,,,97.62,meteohub,2013-03-17 12:25:00,
2013-03-17 07:31:00,14.5,-1.7,30.16,North,-999,-999.0,-999.0,48,0.05,,,97.62,meteohub,2013-03-17 12:31:00,
2013-03-17 07:36:00,14.5,-1.7,30.16,North,-999,-999.0,-999.0,48,0.05,,,97.62,meteohub,2013-03-17 12:36:00,
2013-03-17 07:41:00,14.5,14.5,30.17,North,-999,-999.0,-999.0,0,0.05,,,97.62,meteohub,2013-03-17 12:41:00,
2013-03-17 07:46:00,14.7,-1.5,30.17,North,-999,-999.0,-999.0,48,0.05,,,97.62,meteohub,2013-03-17 12:46:00,
2013-03-17 07:52:00,14.7,-1.5,30.17,North,-999,-999.0,-999.0,48,0.05,,,97.62,meteohub,2013-03-17 12:52:00,
2013-03-17 07:57:00,14.5,-1.7,30.17,North,-999,-999.0,-999.0,48,0.05,,,97.62,meteohub,2013-03-17 12:57:00,
2013-03-17 08:02:00,14.5,-1.7,30.17,North,-999,-999.0,-999.0,48,0.05,,,97.62,meteohub,2013-03-17 13:02:00,
2013-03-17 08:07:00,14.9,-1.3,30.17,North,-999,-999.0,-999.0,48,0.05,,,97.62,meteohub,2013-03-17 13:07:00,
2013-03-17 08:13:00,14.9,-1.3,30.17,North,-999,-999.0,-999.0,48,0.05,,,97.62,meteohub,2013-03-17 13:13:00,
2013-03-17 08:18:00,15.4,-1.7,30.17,North,-999,-999.0,-999.0,46,0.05,,,97.62,meteohub,2013-03-17 13:18:00,
2013-03-17 08:23:00,16.0,-0.8,30.18,North,-999,-999.0,-999.0,47,0.00,,,97.62,meteohub,2013-03-17 13:23:00,
2013-03-17 08:28:00,15.8,-1.3,30.18,North,-999,-999.0,-999.0,46,0.00,,,97.62,meteohub,2013-03-17 13:28:00,
2013-03-17 08:33:00,16.0,-1.1,30.17,North,-999,-999.0,-999.0,46,0.00,,,97.62,meteohub,2013-03-17 13:33:00,
2013-03-17 08:38:00,16.2,-0.9,30.18,North,-999,-999.0,-999.0,46,0.00,,,97.62,meteohub,2013-03-17 13:38:00,
2013-03-17 08:43:00,16.2,-0.9,30.18,North,-999,-999.0,-999.0,46,0.00,,,97.62,meteohub,2013-03-17 13:43:00,
2013-03-17 08:48:00,16.3,-1.3,30.18,North,-999,-999.0,-999.0,45,0.00,,,97.62,meteohub,2013-03-17 13:48:00,
2013-03-17 08:53:00,16.3,-1.3,30.19,North,-999,-999.0,-999.0,45,0.00,,,97.62,meteohub,2013-03-17 13:53:00,
2013-03-17 08:59:00,16.2,-0.6,30.19,North,-999,-999.0,-999.0,47,0.00,,,97.62,meteohub,2013-03-17 13:59:00,
2013-03-17 09:04:00,16.3,-0.8,30.19,North,-999,-999.0,-999.0,46,0.00,,,97.62,meteohub,2013-03-17 14:04:00,
2013-03-17 09:09:00,16.3,-0.8,30.18,North,-999,-999.0,-999.0,46,0.00,,,97.62,meteohub,2013-03-17 14:09:00,
2013-03-17 09:14:00,17.6,-0.2,30.18,North,-999,-999.0,-999.0,45,0.00,,,97.62,meteohub,2013-03-17 14:14:00,
2013-03-17 09:20:00,17.6,-0.2,30.19,North,-999,-999.0,-999.0,45,0.00,,,97.62,meteohub,2013-03-17 14:20:00,
2013-03-17 09:25:00,17.8,0.5,30.19,North,-999,-999.0,-999.0,46,0.00,,,97.62,meteohub,2013-03-17 14:25:00,
2013-03-17 09:30:00,18.3,0.1,30.19,North,-999,-999.0,-999.0,44,0.00,,,97.62,meteohub,2013-03-17 14:30:00,
2013-03-17 09:35:00,18.3,0.5,30.19,North,-999,-999.0,-999.0,45,0.00,,,97.62,meteohub,2013-03-17 14:35:00,
2013-03-17 09:41:00,18.7,1.4,30.19,North,-999,-999.0,-999.0,46,0.00,,,97.62,meteohub,2013-03-17 14:41:00,
2013-03-17 09:47:00,18.7,1.4,30.19,North,-999,-999.0,-999.0,46,0.00,,,97.62,meteohub,2013-03-17 14:47:00,
2013-03-17 09:52:00,19.0,0.7,30.19,North,-999,-999.0,-999.0,44,0.00,,,97.62,meteohub,2013-03-17 14:52:00,
2013-03-17 09:57:00,19.2,0.9,30.19,North,-999,-999.0,-999.0,44,0.00,,,97.62,meteohub,2013-03-17 14:57:00,
2013-03-17 10:02:00,19.4,1.0,30.19,North,-999,-999.0,-999.0,44,0.00,,,97.62,meteohub,2013-03-17 15:02:00,
2013-03-17 10:07:00,19.8,1.8,30.19,North,-999,-999.0,-999.0,45,0.00,,,97.62,meteohub,2013-03-17 15:07:00,
2013-03-17 10:12:00,20.1,1.8,30.19,North,-999,-999.0,-999.0,44,0.00,,,97.62,meteohub,2013-03-17 15:12:00,
2013-03-17 10:17:00,20.1,2.1,30.19,North,-999,-999.0,-999.0,45,0.00,,,97.62,meteohub,2013-03-17 15:17:00,
2013-03-17 10:22:00,20.1,2.1,30.19,North,-999,-999.0,-999.0,45,0.00,,,97.62,meteohub,2013-03-17 15:22:00,
2013-03-17 10:27:00,20.8,2.3,30.19,North,-999,-999.0,-999.0,44,0.00,,,97.62,meteohub,2013-03-17 15:27:00,
2013-03-17 10:32:00,21.2,3.2,30.19,North,-999,-999.0,-999.0,45,0.00,,,97.62,meteohub,2013-03-17 15:32:00,
2013-03-17 10:37:00,21.4,2.8,30.19,North,-999,-999.0,-999.0,44,0.00,,,97.62,meteohub,2013-03-17 15:37:00,
2013-03-17 10:42:00,21.7,4.1,30.19,North,-999,-999.0,-999.0,46,0.00,,,97.62,meteohub,2013-03-17 15:42:00,
2013-03-17 10:47:00,21.7,3.2,30.18,North,-999,-999.0,-999.0,44,0.00,,,97.62,meteohub,2013-03-17 15:47:00,
2013-03-17 10:52:00,22.1,3.9,30.19,North,-999,-999.0,-999.0,45,0.00,,,97.62,meteohub,2013-03-17 15:52:00,
2013-03-17 10:57:00,22.1,3.6,30.18,North,-999,-999.0,-999.0,44,0.00,,,97.62,meteohub,2013-03-17 15:57:00,
2013-03-17 11:03:00,22.6,3.9,30.18,North,-999,-999.0,-999.0,44,0.00,,,97.62,meteohub,2013-03-17 16:03:00,
2013-03-17 11:08:00,22.8,3.7,30.18,North,-999,-999.0,-999.0,43,0.00,,,97.62,meteohub,2013-03-17 16:08:00,
2013-03-17 11:13:00,22.8,3.7,30.18,North,-999,-999.0,-999.0,43,0.00,,,97.62,meteohub,2013-03-17 16:13:00,
2013-03-17 11:18:00,23.4,5.2,30.18,North,-999,-999.0,-999.0,45,0.00,,,97.62,meteohub,2013-03-17 16:18:00,
2013-03-17 11:23:00,23.4,5.2,30.18,North,-999,-999.0,-999.0,45,0.00,,,97.62,meteohub,2013-03-17 16:23:00,
2013-03-17 11:29:00,23.7,4.5,30.17,North,-999,-999.0,-999.0,43,0.00,,,97.62,meteohub,2013-03-17 16:29:00,
2013-03-17 11:34:00,24.1,6.3,30.17,North,-999,-999.0,-999.0,46,0.00,,,97.62,meteohub,2013-03-17 16:34:00,
2013-03-17 11:39:00,24.3,5.9,30.17,North,-999,-999.0,-999.0,45,0.00,,,97.62,meteohub,2013-03-17 16:39:00,
2013-03-17 11:44:00,24.6,6.8,30.17,North,-999,-999.0,-999.0,46,0.00,,,97.62,meteohub,2013-03-17 16:44:00,
2013-03-17 11:49:00,24.6,6.8,30.17,North,-999,-999.0,-999.0,46,0.00,,,97.62,meteohub,2013-03-17 16:49:00,
2013-03-17 11:55:00,24.6,6.3,30.17,North,-999,-999.0,-999.0,45,0.00,,,97.62,meteohub,2013-03-17 16:55:00,
2013-03-17 12:00:00,24.8,7.0,30.17,North,-999,-999.0,-999.0,46,0.00,,,97.62,meteohub,2013-03-17 17:00:00,
2013-03-17 12:05:00,24.8,7.0,30.17,North,-999,-999.0,-999.0,46,0.00,,,97.62,meteohub,2013-03-17 17:05:00,
2013-03-17 12:10:00,25.3,7.0,30.16,North,-999,-999.0,-999.0,45,0.00,,,97.62,meteohub,2013-03-17 17:10:00,
2013-03-17 12:15:00,25.7,6.8,30.16,North,-999,-999.0,-999.0,44,0.00,,,97.62,meteohub,2013-03-17 17:15:00,
2013-03-17 12:20:00,25.5,6.6,30.16,North,-999,-999.0,-999.0,44,0.00,,,97.62,meteohub,2013-03-17 17:20:00,
2013-03-17 12:26:00,25.7,7.7,30.16,North,-999,-999.0,-999.0,46,0.00,,,97.62,meteohub,2013-03-17 17:26:00,
2013-03-17 12:31:00,26.1,7.2,30.16,North,-999,-999.0,-999.0,44,0.00,,,97.62,meteohub,2013-03-17 17:31:00,
2013-03-17 12:36:00,26.1,7.2,30.16,North,-999,-999.0,-999.0,44,0.00,,,97.62,meteohub,2013-03-17 17:36:00,
2013-03-17 12:41:00,26.1,7.7,30.16,North,-999,-999.0,-999.0,45,0.00,,,97.62,meteohub,2013-03-17 17:41:00,
2013-03-17 12:46:00,26.1,8.6,30.16,North,-999,-999.0,-999.0,47,0.00,,,97.62,meteohub,2013-03-17 17:46:00,
2013-03-17 12:52:00,26.2,7.7,30.15,North,-999,-999.0,-999.0,45,0.00,,,97.62,meteohub,2013-03-17 17:52:00,
2013-03-17 12:57:00,26.2,7.7,30.15,North,-999,-999.0,-999.0,45,0.00,,,97.62,meteohub,2013-03-17 17:57:00,
2013-03-17 13:02:00,26.4,8.4,30.14,North,-999,-999.0,-999.0,46,0.00,,,97.62,meteohub,2013-03-17 18:02:00,
2013-03-17 13:08:00,26.2,8.2,30.14,North,-999,-999.0,-999.0,46,0.00,,,97.62,meteohub,2013-03-17 18:08:00,
2013-03-17 13:13:00,26.4,7.5,30.14,North,-999,-999.0,-999.0,44,0.00,,,97.62,meteohub,2013-03-17 18:13:00,
2013-03-17 13:18:00,26.4,7.9,30.14,North,-999,-999.0,-999.0,45,0.00,,,97.62,meteohub,2013-03-17 18:18:00,
2013-03-17 13:23:00,26.8,8.2,30.13,SE,135,17.0,17.0,45,0.01,,,97.63,meteohub,2013-03-17 18:23:00,
2013-03-17 13:28:00,26.8,8.8,30.13,East,90,14.0,19.0,46,0.01,,,97.63,meteohub,2013-03-17 18:28:00,
2013-03-17 13:33:00,27.0,8.4,30.13,SE,135,17.0,19.0,45,0.01,,,97.63,meteohub,2013-03-17 18:33:00,
2013-03-17 13:39:00,27.1,8.6,30.13,East,90,15.0,19.0,45,0.01,,,97.63,meteohub,2013-03-17 18:39:00,
2013-03-17 13:44:00,27.0,8.4,30.13,East,90,16.0,17.0,45,0.01,,,97.63,meteohub,2013-03-17 18:44:00,
2013-03-17 13:49:00,27.0,9.9,30.12,East,90,14.0,17.0,48,0.01,,,97.63,meteohub,2013-03-17 18:49:00,
2013-03-17 13:54:00,27.3,9.7,30.12,SE,135,13.0,16.0,47,0.01,,,97.63,meteohub,2013-03-17 18:54:00,
2013-03-17 13:59:00,27.0,7.9,30.11,ESE,113,16.0,16.0,44,0.01,,,97.63,meteohub,2013-03-17 18:59:00,
2013-03-17 14:04:00,27.0,9.0,30.10,East,90,14.0,18.0,46,0.01,,,97.63,meteohub,2013-03-17 19:04:00,
2013-03-17 14:09:00,27.1,9.5,30.10,East,90,11.0,19.0,47,0.01,,,97.63,meteohub,2013-03-17 19:09:00,
2013-03-17 14:14:00,27.3,9.7,30.10,East,90,14.0,19.0,47,0.01,,,97.63,meteohub,2013-03-17 19:14:00,
2013-03-17 14:20:00,27.3,9.7,30.10,ESE,113,15.0,19.0,47,0.01,,,97.63,meteohub,2013-03-17 19:20:00,
2013-03-17 14:25:00,27.7,9.7,30.10,East,90,15.0,16.0,46,0.00,,,97.63,meteohub,2013-03-17 19:25:00,
2013-03-17 14:30:00,27.5,9.0,30.10,East,90,15.0,15.0,45,0.00,,,97.63,meteohub,2013-03-17 19:30:00,
2013-03-17 14:35:00,27.7,10.6,30.09,East,90,17.0,17.0,48,0.00,,,97.63,meteohub,2013-03-17 19:35:00,
2013-03-17 14:40:00,27.3,9.7,30.09,East,90,13.0,17.0,47,0.00,,,97.63,meteohub,2013-03-17 19:40:00,
2013-03-17 14:46:00,27.9,9.7,30.09,East,90,16.0,17.0,46,0.00,,,97.63,meteohub,2013-03-17 19:46:00,
2013-03-17 14:51:00,28.4,10.2,30.09,East,90,14.0,17.0,46,0.00,,,97.63,meteohub,2013-03-17 19:51:00,
2013-03-17 14:57:00,28.4,10.2,30.09,East,90,12.0,16.0,46,0.00,,,97.63,meteohub,2013-03-17 19:57:00,
2013-03-17 15:02:00,28.4,10.2,30.09,East,90,13.0,16.0,46,0.00,,,97.63,meteohub,2013-03-17 20:02:00,
2013-03-17 15:07:00,28.8,10.6,30.09,East,90,11.0,15.0,46,0.00,,,97.63,meteohub,2013-03-17 20:07:00,
2013-03-17 15:12:00,29.1,10.9,30.09,SE,135,15.0,15.0,46,0.00,,,97.63,meteohub,2013-03-17 20:12:00,
2013-03-17 15:17:00,28.0,9.5,30.09,SE,135,12.0,15.0,45,0.00,,,97.63,meteohub,2013-03-17 20:17:00,
2013-03-17 15:22:00,29.3,10.6,30.08,SE,135,15.0,15.0,45,0.00,,,97.63,meteohub,2013-03-17 20:22:00,
2013-03-17 15:27:00,29.3,10.0,30.08,SE,135,14.0,15.0,44,0.00,,,97.63,meteohub,2013-03-17 20:27:00,
2013-03-17 15:32:00,29.5,10.8,30.09,ESE,113,11.0,15.0,45,0.00,,,97.63,meteohub,2013-03-17 20:32:00,
2013-03-17 15:38:00,30.2,10.9,30.09,East,90,11.0,15.0,44,0.00,,,97.63,meteohub,2013-03-17 20:38:00,
2013-03-17 15:43:00,30.4,11.1,30.08,ESE,113,15.0,17.0,44,0.00,,,97.63,meteohub,2013-03-17 20:43:00,
2013-03-17 15:48:00,30.4,12.0,30.08,SE,135,13.0,17.0,46,0.00,,,97.63,meteohub,2013-03-17 20:48:00,
2013-03-17 15:53:00,30.2,10.9,30.08,SE,135,17.0,17.0,44,0.00,,,97.63,meteohub,2013-03-17 20:53:00,
2013-03-17 15:59:00,29.1,9.9,30.08,SE,135,14.0,17.0,44,0.00,,,97.63,meteohub,2013-03-17 20:59:00,
2013-03-17 16:04:00,29.7,10.4,30.07,SE,135,13.0,17.0,44,0.00,,,97.63,meteohub,2013-03-17 21:04:00,
2013-03-17 16:10:00,30.2,10.4,30.07,SE,135,16.0,17.0,43,0.00,,,97.63,meteohub,2013-03-17 21:10:00,
2013-03-17 16:15:00,29.8,10.6,30.07,SE,135,14.0,17.0,44,0.00,,,97.63,meteohub,2013-03-17 21:15:00,
2013-03-17 16:20:00,29.7,11.5,30.07,SE,135,15.0,17.0,46,0.00,,,97.63,meteohub,2013-03-17 21:20:00,
2013-03-17 16:25:00,30.6,11.7,30.06,SE,135,15.0,17.0,45,0.00,,,97.63,meteohub,2013-03-17 21:25:00,
2013-03-17 16:31:00,30.4,11.1,30.06,SE,135,15.0,17.0,44,0.00,,,97.63,meteohub,2013-03-17 21:31:00,
2013-03-17 16:36:00,30.2,10.9,30.06,SE,135,16.0,17.0,44,0.00,,,97.63,meteohub,2013-03-17 21:36:00,
2013-03-17 16:42:00,29.7,10.4,30.06,ESE,113,17.0,17.0,44,0.00,,,97.63,meteohub,2013-03-17 21:42:00,
2013-03-17 16:47:00,29.7,10.4,30.06,East,90,13.0,17.0,44,0.00,,,97.63,meteohub,2013-03-17 21:47:00,
2013-03-17 16:52:00,29.7,10.4,30.06,SE,135,12.0,17.0,44,0.00,,,97.63,meteohub,2013-03-17 21:52:00,
2013-03-17 16:57:00,29.3,10.6,30.06,SE,135,12.0,17.0,45,0.00,,,97.63,meteohub,2013-03-17 21:57:00,
2013-03-17 17:02:00,28.8,10.6,30.06,SE,135,13.0,15.0,46,0.00,,,97.63,meteohub,2013-03-17 22:02:00,
2013-03-17 17:07:00,28.6,10.4,30.05,SE,135,14.0,15.0,46,0.00,,,97.63,meteohub,2013-03-17 22:07:00,
2013-03-17 17:12:00,28.4,10.8,30.05,SE,135,16.0,16.0,47,0.00,,,97.63,meteohub,2013-03-17 22:12:00,
2013-03-17 17:17:00,28.2,11.1,30.04,East,90,15.0,16.0,48,0.00,,,97.63,meteohub,2013-03-17 22:17:00,
2013-03-17 17:22:00,28.2,11.1,30.04,SE,135,15.0,16.0,48,0.00,,,97.63,meteohub,2013-03-17 22:22:00,
2013-03-17 17:28:00,28.0,11.3,30.05,SE,135,12.0,17.0,49,0.00,,,97.63,meteohub,2013-03-17 22:28:00,
2013-03-17 17:33:00,27.7,10.0,30.04,East,90,16.0,17.0,47,0.00,,,97.63,meteohub,2013-03-17 22:33:00,
2013-03-17 17:38:00,27.7,10.6,30.04,East,90,14.0,17.0,48,0.00,,,97.63,meteohub,2013-03-17 22:38:00,
2013-03-17 17:43:00,28.0,10.4,30.04,East,90,15.0,18.0,47,0.00,,,97.63,meteohub,2013-03-17 22:43:00,
2013-03-17 17:48:00,28.2,10.6,30.04,SE,135,15.0,18.0,47,0.00,,,97.63,meteohub,2013-03-17 22:48:00,
2013-03-17 17:53:00,28.2,10.0,30.03,SE,135,15.0,17.0,46,0.00,,,97.63,meteohub,2013-03-17 22:53:00,
2013-03-17 17:58:00,28.0,10.9,30.04,ESE,113,13.0,17.0,48,0.00,,,97.63,meteohub,2013-03-17 22:58:00,
2013-03-17 18:04:00,27.9,9.7,30.04,ESE,113,17.0,17.0,46,0.00,,,97.63,meteohub,2013-03-17 23:04:00,
2013-03-17 18:09:00,27.5,9.9,30.04,East,90,15.0,17.0,47,0.00,,,97.63,meteohub,2013-03-17 23:09:00,
2013-03-17 18:14:00,27.5,9.9,30.04,SE,135,12.0,17.0,47,0.00,,,97.63,meteohub,2013-03-17 23:14:00,
2013-03-17 18:19:00,27.3,9.7,30.03,SE,135,14.0,17.0,47,0.00,,,97.63,meteohub,2013-03-17 23:19:00,
2013-03-17 18:25:00,27.3,9.7,30.03,ESE,113,15.0,17.0,47,0.00,,,97.63,meteohub,2013-03-17 23:25:00,
2013-03-17 18:30:00,27.1,10.0,30.03,SE,135,16.0,17.0,48,0.00,,,97.63,meteohub,2013-03-17 23:30:00,
2013-03-17 18:35:00,27.1,9.5,30.03,SE,135,15.0,17.0,47,0.00,,,97.63,meteohub,2013-03-17 23:35:00,
2013-03-17 18:40:00,27.0,9.9,30.03,SE,135,15.0,16.0,48,0.00,,,97.63,meteohub,2013-03-17 23:40:00,
2013-03-17 18:45:00,26.6,9.1,30.03,East,90,19.0,19.0,47,0.00,,,97.63,meteohub,2013-03-17 23:45:00,
2013-03-17 18:50:00,26.4,9.3,30.03,SE,135,15.0,19.0,48,0.00,,,97.63,meteohub,2013-03-17 23:50:00,
2013-03-17 18:56:00,26.2,9.1,30.03,SE,135,17.0,19.0,48,0.00,,,97.63,meteohub,2013-03-17 23:56:00,
2013-03-17 19:01:00,25.9,9.3,30.02,ESE,113,13.0,19.0,49,0.00,,,97.63,meteohub,2013-03-18 00:01:00,
2013-03-17 19:06:00,25.9,9.3,30.03,SE,135,14.0,19.0,49,0.00,,,97.63,meteohub,2013-03-18 00:06:00,
2013-03-17 19:11:00,25.7,9.1,30.02,ESE,113,17.0,18.0,49,0.00,,,97.63,meteohub,2013-03-18 00:11:00,
2013-03-17 19:17:00,25.3,8.8,30.03,East,90,17.0,17.0,49,0.00,,,97.63,meteohub,2013-03-18 00:17:00,
2013-03-17 19:22:00,25.3,9.3,30.03,ESE,113,16.0,18.0,50,0.00,,,97.63,meteohub,2013-03-18 00:22:00,
2013-03-17 19:27:00,25.2,9.5,30.03,SE,135,17.0,19.0,51,0.00,,,97.63,meteohub,2013-03-18 00:27:00,
2013-03-17 19:32:00,25.0,9.3,30.03,SE,135,14.0,19.0,51,0.00,,,97.63,meteohub,2013-03-18 00:32:00,
2013-03-17 19:37:00,24.8,9.3,30.02,SE,135,13.0,19.0,51,0.00,,,97.63,meteohub,2013-03-18 00:37:00,
2013-03-17 19:42:00,24.8,9.3,30.02,ESE,113,17.0,18.0,51,0.00,,,97.63,meteohub,2013-03-18 00:42:00,
2013-03-17 19:47:00,24.8,9.7,30.03,SE,135,13.0,20.0,52,0.00,,,97.63,meteohub,2013-03-18 00:47:00,
2013-03-17 19:52:00,24.4,9.3,30.03,ESE,113,13.0,20.0,52,0.00,,,97.63,meteohub,2013-03-18 00:52:00,
2013-03-17 19:57:00,24.4,9.3,30.03,East,90,15.0,20.0,52,0.00,,,97.63,meteohub,2013-03-18 00:57:00,
2013-03-17 20:02:00,24.4,9.7,30.02,SE,135,13.0,17.0,53,0.00,,,97.63,meteohub,2013-03-18 01:02:00,
2013-03-17 20:07:00,24.4,9.7,30.02,SE,135,13.0,17.0,53,0.00,,,97.63,meteohub,2013-03-18 01:07:00,
2013-03-17 20:13:00,24.3,10.0,30.02,ESE,113,16.0,16.0,54,0.00,,,97.63,meteohub,2013-03-18 01:13:00,
2013-03-17 20:18:00,24.1,9.9,30.02,East,90,15.0,17.0,54,0.00,,,97.63,meteohub,2013-03-18 01:18:00,
2013-03-17 20:23:00,24.1,10.2,30.02,SE,135,14.0,17.0,55,0.00,,,97.63,meteohub,2013-03-18 01:23:00,
2013-03-17 20:28:00,23.9,10.0,30.02,East,90,11.0,17.0,55,0.00,,,97.63,meteohub,2013-03-18 01:28:00,
2013-03-17 20:34:00,23.9,10.4,30.02,East,90,14.0,17.0,56,0.00,,,97.63,meteohub,2013-03-18 01:34:00,
2013-03-17 20:39:00,24.1,11.1,30.02,East,90,10.0,17.0,57,0.00,,,97.63,meteohub,2013-03-18 01:39:00,
2013-03-17 20:45:00,24.1,11.1,30.01,East,90,12.0,16.0,57,0.00,,,97.63,meteohub,2013-03-18 01:45:00,
2013-03-17 20:50:00,24.1,11.1,30.01,East,90,11.0,16.0,57,0.00,,,97.63,meteohub,2013-03-18 01:50:00,
2013-03-17 20:55:00,23.9,10.9,30.01,East,90,13.0,15.0,57,0.00,,,97.63,meteohub,2013-03-18 01:55:00,
2013-03-17 21:00:00,23.7,10.8,30.01,ESE,113,12.0,15.0,57,0.00,,,97.63,meteohub,2013-03-18 02:00:00,
2013-03-17 21:06:00,23.7,10.8,30.00,ESE,113,12.0,15.0,57,0.00,,,97.63,meteohub,2013-03-18 02:06:00,
2013-03-17 21:11:00,23.7,11.1,30.00,East,90,14.0,16.0,58,0.00,,,97.63,meteohub,2013-03-18 02:11:00,
2013-03-17 21:16:00,23.5,10.9,30.00,East,90,13.0,16.0,58,0.00,,,97.63,meteohub,2013-03-18 02:16:00,
2013-03-17 21:21:00,23.5,10.9,30.00,East,90,13.0,17.0,58,0.00,,,97.63,meteohub,2013-03-18 02:21:00,
2013-03-17 21:27:00,23.4,11.1,30.00,ESE,113,13.0,17.0,59,0.00,,,97.63,meteohub,2013-03-18 02:27:00,
2013-03-17 21:32:00,23.4,11.1,29.99,East,90,11.0,17.0,59,0.00,,,97.63,meteohub,2013-03-18 02:32:00,
2013-03-17 21:37:00,23.4,11.1,29.99,SE,135,15.0,16.0,59,0.00,,,97.63,meteohub,2013-03-18 02:37:00,
2013-03-17 21:42:00,23.4,11.1,29.99,SE,135,11.0,15.0,59,0.00,,,97.63,meteohub,2013-03-18 02:42:00,
2013-03-17 21:47:00,23.4,11.1,29.99,SE,135,14.0,15.0,59,0.00,,,97.63,meteohub,2013-03-18 02:47:00,
2013-03-17 21:52:00,23.5,11.3,29.99,East,90,14.0,15.0,59,0.00,,,97.63,meteohub,2013-03-18 02:52:00,
2013-03-17 21:57:00,23.4,11.1,29.99,East,90,14.0,15.0,59,0.00,,,97.63,meteohub,2013-03-18 02:57:00,
2013-03-17 22:02:00,23.4,11.1,29.99,ESE,113,14.0,17.0,59,0.00,,,97.63,meteohub,2013-03-18 03:02:00,
2013-03-17 22:07:00,23.4,11.1,29.99,ESE,113,14.0,17.0,59,0.00,,,97.63,meteohub,2013-03-18 03:07:00,
2013-03-17 22:12:00,23.2,10.9,29.98,East,90,12.0,17.0,59,0.00,,,97.63,meteohub,2013-03-18 03:12:00,
2013-03-17 22:17:00,23.4,11.1,29.98,East,90,14.0,14.0,59,0.00,,,97.63,meteohub,2013-03-18 03:17:00,
2013-03-17 22:23:00,23.2,10.9,29.98,East,90,14.0,17.0,59,0.00,,,97.63,meteohub,2013-03-18 03:23:00,
2013-03-17 22:28:00,23.2,10.9,29.98,East,90,12.0,17.0,59,0.00,,,97.63,meteohub,2013-03-18 03:28:00,
2013-03-17 22:33:00,23.2,10.9,29.98,East,90,12.0,15.0,59,0.00,,,97.63,meteohub,2013-03-18 03:33:00,
2013-03-17 22:38:00,23.2,10.9,29.98,East,90,11.0,15.0,59,0.00,,,97.63,meteohub,2013-03-18 03:38:00,
2013-03-17 22:43:00,23.2,10.9,29.97,East,90,13.0,15.0,59,0.00,,,97.63,meteohub,2013-03-18 03:43:00,
2013-03-17 22:48:00,23.2,10.9,29.97,ESE,113,12.0,15.0,59,0.00,,,97.63,meteohub,2013-03-18 03:48:00,
2013-03-17 22:54:00,23.2,10.9,29.97,East,90,12.0,16.0,59,0.00,,,97.63,meteohub,2013-03-18 03:54:00,
2013-03-17 22:59:00,23.2,11.3,29.97,ESE,113,11.0,16.0,60,0.00,,,97.63,meteohub,2013-03-18 03:59:00,
2013-03-17 23:00:00,23.2,11.3,29.97,ESE,113,13.0,16.0,60,0.00,,,97.63,meteohub,2013-03-18 04:00:00,
2013-03-17 23:01:00,23.2,11.3,29.97,ESE,113,13.0,16.0,60,0.00,,,97.63,meteohub,2013-03-18 04:01:00,
2013-03-17 23:02:00,23.2,11.3,29.97,ESE,113,13.0,16.0,60,0.00,,,97.63,meteohub,2013-03-18 04:02:00,
2013-03-17 23:05:00,23.2,11.3,29.97,ESE,113,13.0,13.0,60,0.00,,,97.63,meteohub,2013-03-18 04:05:00,
2013-03-17 23:10:00,23.0,11.1,29.97,ESE,113,10.0,13.0,60,0.00,,,97.63,meteohub,2013-03-18 04:10:00,
2013-03-17 23:16:00,22.8,10.9,29.96,SE,135,8.0,13.0,60,0.00,,,97.63,meteohub,2013-03-18 04:16:00,
2013-03-17 23:21:00,22.6,11.3,29.96,East,90,10.0,13.0,61,0.00,,,97.63,meteohub,2013-03-18 04:21:00,
2013-03-17 23:26:00,22.6,11.3,29.96,SE,135,11.0,13.0,61,0.00,,,97.63,meteohub,2013-03-18 04:26:00,
2013-03-17 23:32:00,22.6,11.3,29.95,East,90,10.0,13.0,61,0.00,,,97.63,meteohub,2013-03-18 04:32:00,
2013-03-17 23:37:00,22.6,11.3,29.95,ESE,113,11.0,13.0,61,0.00,,,97.63,meteohub,2013-03-18 04:37:00,
2013-03-17 23:42:00,22.6,11.3,29.95,SE,135,12.0,13.0,61,0.00,,,97.63,meteohub,2013-03-18 04:42:00,
2013-03-17 23:47:00,22.6,11.3,29.94,ESE,113,11.0,13.0,61,0.00,,,97.63,meteohub,2013-03-18 04:47:00,
2013-03-17 23:52:00,22.5,11.1,29.94,SE,135,11.0,13.0,61,0.00,,,97.63,meteohub,2013-03-18 04:52:00,
2013-03-17 23:57:00,22.6,11.3,29.93,East,90,11.0,13.0,61,0.00,,,97.63,meteohub,2013-03-18 04:57:00,